Wind_Speed
20 20 21 22 23 24 26 28 29 30 31 32 34 36 38 39 40 41 41 41 41 41 41 40 39 38 36 35 35 35 35 34 32 31 31 31 30 30 29 29 30 30 31
16 18 19 21 22 24 26 27 28 30 32 34 35 37 39 40 41 42 42 43 43 42 42 41 40 39 38 37 36 36 35 34 33 33 32 32 30 30 29 29 30 30 31
13 15 17 19 20 22 24 26 28 31 33 34 36 37 39 41 42 43 43 43 43 42 42 41 40 40 39 38 38 37 36 36 35 34 33 32 31 30 30 29 30 30 31
11 13 15 18 20 22 24 27 29 31 33 35 37 38 40 41 42 43 43 43 42 42 41 40 40 40 39 39 38 38 37 37 36 36 34 33 33 31 30 30 30 31 32
10 13 15 18 20 22 24 26 28 31 33 35 36 38 39 40 41 42 42 42 41 41 41 40 38 38 38 38 37 37 37 36 37 36 36 34 33 32 32 31 30 30 31
12 14 17 19 21 23 25 28 30 31 33 35 36 37 38 39 39 40 40 40 39 39 39 39 37 37 37 37 37 37 37 37 37 37 36 36 34 33 32 32 32 31 32
14 17 20 23 25 27 29 31 32 34 35 36 37 38 38 38 39 38 38 38 38 37 38 38 37 37 36 36 36 36 37 37 38 38 37 37 37 35 35 34 33 32 32
19 22 24 26 29 31 33 34 36 37 38 38 39 39 39 39 39 39 39 39 39 38 38 38 38 38 37 37 37 37 37 37 38 39 39 38 39 38 37 36 36 35 33
23 26 28 30 32 35 36 38 39 39 39 39 39 39 39 39 39 39 39 40 40 40 40 40 40 40 40 39 39 39 39 38 39 40 41 41 41 41 40 38 39 37 35
27 29 31 33 35 37 39 40 41 41 41 40 40 39 39 39 40 40 40 40 40 41 42 42 43 43 43 43 43 42 42 41 41 41 41 43 43 43 43 43 42 41 39
29 31 33 35 38 39 41 42 42 42 41 41 41 40 40 41 41 41 41 41 42 42 43 43 45 46 46 47 46 46 46 45 45 44 44 44 45 45 45 45 45 45 43
30 32 35 38 39 40 41 42 42 41 41 41 41 41 41 42 42 42 42 42 42 43 43 44 45 46 47 48 48 48 48 48 48 48 47 46 47 47 47 48 48 48 48
32 34 37 39 40 41 41 41 41 41 41 41 42 42 42 42 42 42 42 42 42 43 44 44 45 46 46 47 48 49 49 49 49 50 49 49 49 49 49 50 50 51 51
34 36 38 39 40 41 41 41 41 41 42 42 42 42 42 42 42 41 41 41 42 43 43 44 45 46 47 48 48 49 49 49 50 50 51 51 51 51 52 52 53 53 53
35 37 39 40 41 42 42 42 42 42 43 43 43 43 43 42 42 41 41 41 42 43 44 44 45 45 46 46 47 47 47 48 49 50 51 51 52 52 53 53 54 55 54
36 38 40 41 42 42 42 42 43 43 43 44 44 43 43 42 42 41 41 42 41 41 42 42 42 42 43 43 43 44 44 45 47 48 50 51 52 52 53 54 55 56 56
37 39 41 42 42 42 43 43 43 44 44 45 44 44 43 42 42 42 41 41 41 41 41 41 41 41 40 39 39 40 40 41 43 45 47 49 51 52 52 54 55 57 58
39 40 41 42 42 43 43 44 45 45 45 45 45 44 43 42 42 41 40 40 40 40 40 39 39 38 37 36 35 35 35 35 37 39 42 45 48 51 52 53 55 56 58
39 41 41 41 42 43 44 45 45 45 45 45 45 44 43 42 41 40 39 39 39 39 38 37 37 35 34 32 31 30 29 30 32 34 37 41 44 45 49 51 53 54 56
40 40 41 41 42 43 44 45 45 45 45 45 44 43 42 41 40 39 39 39 38 37 36 36 35 33 31 29 27 26 25 26 28 30 33 37 40 42 44 47 50 52 54
39 40 41 41 42 43 44 46 45 45 46 45 44 43 42 41 40 39 39 38 37 36 35 34 32 30 28 25 23 22 21 22 24 26 29 32 36 38 42 44 45 47 51
39 40 41 41 42 44 45 46 46 46 46 46 44 43 42 41 40 39 38 37 36 35 34 32 30 27 25 22 20 19 18 19 21 23 26 30 33 36 39 41 42 44 46
39 40 41 42 43 44 46 46 46 46 46 45 44 43 41 40 40 39 37 36 34 34 32 30 27 25 23 20 17 16 15 16 18 20 23 27 31 35 37 39 40 41 42
39 40 41 42 43 44 46 46 46 46 46 45 44 42 40 40 40 37 36 34 33 32 30 28 26 24 22 18 15 13 11 12 14 16 20 24 28 31 34 36 37 38 39
39 41 42 43 44 45 46 46 46 45 45 45 43 41 40 40 38 37 35 33 32 30 29 26 25 22 20 17 12 8 6 7 10 14 18 22 25 28 31 34 35 37 37
40 41 43 43 44 45 46 46 46 45 44 44 42 40 39 39 38 36 34 32 31 29 27 25 23 21 19 16 12 7 2 4 8 13 18 21 23 25 28 32 35 35 35
Wind_Direction
283 287 288 289 290 291 292 293 293 294 294 293 293 292 292 291 291 291 290 290 289 288 288 287 286 284 282 280 278 277 276 274 271 267 266 264 263 261 257 250 246 241 236
285 288 289 291 293 295 296 296 296 296 295 295 294 293 293 292 291 290 289 288 288 287 286 285 284 282 280 278 276 275 273 271 269 266 264 261 260 259 255 249 245 240 237
286 292 295 297 298 298 298 298 297 296 296 295 295 294 293 293 292 291 290 289 287 286 284 282 280 279 277 276 274 273 271 269 266 264 262 259 258 256 253 250 244 238 236
296 301 303 305 305 303 301 300 299 298 298 297 296 295 294 293 293 292 291 289 288 286 284 281 279 278 276 274 272 271 268 266 264 262 260 259 256 253 249 246 243 239 234
312 312 311 309 307 305 303 303 301 300 299 298 297 296 295 294 293 292 290 289 287 286 284 283 280 277 275 274 271 269 266 264 262 260 257 256 253 251 247 244 242 237 232
325 322 319 316 314 312 311 309 307 306 305 304 302 300 299 297 296 294 292 290 288 287 285 283 280 277 275 272 271 268 265 263 261 258 256 253 251 249 246 243 239 234 230
328 326 326 324 322 320 318 317 315 314 312 310 308 306 304 301 299 297 295 293 290 288 286 284 282 279 276 274 271 269 266 263 260 257 254 250 247 245 243 241 235 232 229
334 333 332 329 327 325 323 322 320 318 316 314 312 309 307 305 302 300 298 295 292 290 287 285 283 281 278 275 272 270 267 263 260 256 252 249 245 241 240 236 232 230 229
338 336 333 331 329 327 325 324 321 319 317 315 313 311 308 306 304 302 299 296 293 290 288 285 283 281 278 276 273 270 267 264 260 256 252 248 244 241 237 233 230 229 229
338 336 333 331 329 327 325 324 323 321 319 316 314 312 309 307 305 302 299 296 293 290 288 286 283 281 279 277 274 271 268 265 261 257 253 249 245 241 236 232 229 227 226
335 333 331 329 328 327 326 325 323 321 319 318 316 314 312 309 307 304 300 297 294 291 289 287 284 282 280 277 274 271 267 264 260 257 253 250 245 242 236 231 229 226 224
330 329 329 329 328 327 326 325 323 322 321 319 317 315 314 311 308 306 302 299 296 293 291 289 286 283 280 277 274 271 267 263 259 256 252 249 246 242 238 232 229 227 225
329 329 328 328 327 327 326 326 325 324 323 322 320 318 316 313 311 308 305 303 300 297 295 293 289 285 282 279 275 272 268 262 257 254 251 247 244 241 237 233 229 227 225
328 327 327 327 327 328 328 328 327 326 325 323 321 320 318 315 313 310 307 305 303 301 299 296 292 288 285 281 277 273 267 261 256 252 249 246 242 239 236 233 229 226 224
327 326 326 327 329 330 330 329 328 328 327 325 323 321 319 317 314 312 310 308 306 304 302 299 295 292 288 283 278 273 267 261 255 251 247 244 241 237 235 232 228 226 224
326 327 328 329 330 331 331 330 330 329 328 327 325 323 321 319 317 315 313 312 310 308 306 304 300 296 291 285 280 273 266 260 255 249 245 242 239 236 233 230 227 225 224
327 328 329 330 331 331 331 331 331 330 330 329 327 325 323 322 320 318 316 315 313 311 309 306 303 299 294 288 282 275 268 261 254 248 243 239 235 232 230 228 226 225 224
329 330 330 331 331 332 332 332 332 332 331 330 328 327 325 324 323 322 320 319 317 315 312 309 306 302 297 291 285 277 269 260 252 245 240 235 231 230 226 225 224 224 224
329 330 331 331 332 333 333 333 333 333 332 331 330 328 327 327 326 324 323 322 321 318 316 313 310 306 301 294 286 278 269 258 249 242 237 231 229 227 225 223 222 222 222
329 330 331 332 333 333 333 334 334 333 333 332 331 330 330 329 328 327 326 325 324 323 321 317 313 309 304 297 289 281 270 258 248 241 235 230 226 224 221 219 219 220 220
329 330 331 333 333 334 334 335 335 335 335 334 333 332 332 332 331 330 329 328 327 327 326 323 318 315 309 300 291 283 270 257 247 240 233 227 222 220 218 216 215 216 218
329 331 332 333 333 334 335 335 336 336 336 336 334 334 334 334 334 333 332 331 331 331 331 329 326 321 315 307 296 285 272 256 243 237 230 222 218 216 213 212 212 213 216
329 330 331 332 333 334 335 336 337 337 337 337 336 336 335 336 336 335 335 335 334 335 335 334 333 329 324 316 305 291 275 255 240 232 224 217 212 211 209 207 208 210 213
328 329 330 332 333 334 335 336 337 337 338 338 338 338 338 338 338 338 338 338 338 338 339 339 339 337 334 327 316 300 277 249 229 221 212 207 204 203 202 203 204 206 208
327 329 330 332 333 334 335 336 337 337 338 339 339 339 339 340 341 341 341 341 341 341 343 343 345 345 344 341 335 318 284 236 213 205 197 196 195 196 198 199 200 202 204
326 328 329 331 332 334 335 336 336 337 339 339 339 340 341 342 342 343 343 343 343 344 347 348 350 353 352 352 350 346 312 206 196 193 190 190 192 194 196 196 198 199 200
Height
5867 5865 5863 5861 5859 5857 5855 5853 5851 5848 5846 5843 5840 5836 5833 5831 5828 5825 5823 5820 5818 5815 5814 5812 5810 5809 5808 5807 5806 5805 5805 5805 5805 5806 5807 5807 5808 5809 5810 5812 5814 5818 5821
5863 5862 5860 5857 5855 5852 5850 5847 5845 5842 5839 5835 5832 5829 5825 5822 5819 5816 5813 5810 5808 5806 5804 5802 5800 5799 5798 5797 5797 5796 5796 5796 5796 5797 5798 5799 5801 5801 5803 5805 5807 5810 5814
5859 5858 5856 5854 5851 5848 5845 5842 5839 5835 5832 5828 5824 5820 5816 5812 5808 5805 5802 5799 5797 5795 5793 5791 5790 5788 5788 5787 5786 5786 5786 5787 5787 5788 5789 5790 5792 5793 5796 5797 5800 5803 5806
5856 5855 5852 5850 5847 5844 5840 5837 5833 5829 5824 5820 5816 5812 5807 5803 5799 5795 5791 5788 5785 5783 5781 5780 5778 5777 5776 5776 5775 5775 5776 5776 5777 5778 5780 5781 5783 5785 5788 5790 5792 5795 5799
5852 5851 5848 5845 5842 5839 5835 5831 5827 5822 5817 5812 5808 5803 5798 5793 5789 5784 5781 5777 5774 5771 5769 5767 5767 5766 5765 5764 5764 5764 5765 5766 5767 5768 5770 5772 5773 5776 5779 5783 5785 5788 5791
5848 5846 5843 5840 5837 5832 5828 5824 5819 5814 5809 5803 5798 5793 5788 5783 5778 5774 5770 5766 5763 5760 5757 5755 5754 5754 5753 5753 5752 5753 5753 5754 5756 5757 5759 5762 5764 5767 5770 5773 5777 5780 5783
5844 5842 5838 5834 5830 5825 5821 5816 5810 5804 5799 5793 5788 5782 5777 5772 5768 5763 5759 5755 5752 5749 5746 5744 5743 5742 5741 5741 5741 5741 5742 5743 5744 5746 5748 5751 5754 5757 5761 5764 5768 5771 5775
5839 5835 5832 5827 5823 5818 5812 5807 5801 5795 5789 5784 5778 5772 5767 5762 5757 5753 5748 5745 5741 5738 5736 5733 5731 5730 5729 5729 5729 5729 5730 5731 5732 5734 5737 5740 5743 5747 5751 5755 5759 5762 5767
5833 5829 5825 5821 5816 5810 5805 5799 5793 5787 5781 5775 5769 5763 5757 5752 5747 5742 5738 5734 5730 5727 5724 5721 5719 5718 5717 5716 5716 5716 5717 5718 5720 5722 5724 5728 5731 5735 5740 5744 5749 5753 5758
5828 5824 5819 5815 5809 5804 5797 5791 5784 5778 5772 5766 5760 5754 5748 5743 5737 5732 5727 5723 5719 5715 5711 5709 5706 5704 5702 5702 5702 5702 5703 5704 5706 5708 5711 5714 5718 5722 5727 5732 5737 5742 5748
5823 5819 5815 5810 5804 5797 5790 5783 5776 5770 5763 5757 5750 5744 5738 5733 5727 5721 5716 5711 5707 5702 5698 5695 5692 5689 5687 5686 5686 5686 5687 5689 5691 5693 5696 5700 5704 5708 5714 5720 5726 5731 5737
5820 5815 5810 5804 5798 5791 5784 5777 5769 5762 5755 5748 5742 5735 5729 5722 5716 5710 5704 5698 5694 5689 5685 5681 5677 5674 5671 5669 5668 5669 5670 5672 5674 5677 5681 5685 5689 5694 5700 5706 5712 5719 5725
5815 5810 5804 5798 5792 5785 5777 5770 5762 5755 5747 5740 5733 5726 5719 5712 5705 5698 5692 5686 5681 5676 5671 5666 5662 5658 5655 5653 5651 5650 5651 5653 5656 5659 5663 5668 5673 5679 5685 5692 5698 5705 5712
5810 5805 5799 5793 5786 5778 5770 5762 5755 5747 5739 5732 5724 5717 5709 5702 5694 5687 5681 5674 5668 5663 5657 5651 5646 5642 5638 5636 5633 5632 5632 5634 5637 5641 5645 5650 5656 5663 5669 5676 5684 5691 5699
5806 5800 5793 5786 5779 5771 5763 5755 5747 5739 5731 5723 5715 5707 5699 5692 5684 5677 5670 5663 5656 5649 5643 5637 5631 5626 5622 5618 5615 5613 5613 5615 5618 5622 5627 5633 5639 5646 5653 5661 5669 5676 5684
5801 5794 5787 5780 5772 5764 5756 5748 5740 5731 5723 5715 5706 5698 5690 5682 5674 5666 5659 5652 5644 5637 5629 5623 5616 5610 5605 5601 5597 5595 5595 5597 5599 5603 5608 5614 5621 5629 5636 5645 5653 5661 5670
5795 5788 5781 5773 5765 5757 5749 5741 5732 5724 5715 5706 5698 5689 5681 5673 5664 5656 5648 5640 5633 5625 5617 5610 5603 5596 5590 5585 5582 5579 5578 5579 5581 5585 5590 5596 5604 5612 5620 5629 5637 5646 5655
5789 5782 5774 5767 5759 5751 5742 5733 5725 5716 5707 5698 5690 5681 5672 5664 5655 5647 5638 5630 5622 5614 5606 5598 5590 5583 5577 5572 5568 5565 5564 5564 5566 5569 5574 5580 5587 5596 5604 5613 5623 5632 5641
5783 5776 5768 5760 5752 5744 5735 5727 5718 5709 5700 5691 5682 5673 5664 5655 5646 5638 5629 5621 5612 5603 5595 5587 5579 5572 5565 5560 5556 5553 5552 5552 5554 5557 5561 5567 5574 5582 5590 5600 5610 5619 5628
5777 5769 5762 5754 5746 5738 5729 5720 5711 5702 5693 5684 5674 5665 5656 5647 5638 5629 5620 5612 5603 5594 5585 5577 5569 5562 5555 5550 5546 5543 5542 5542 5543 5546 5551 5556 5563 5570 5578 5587 5597 5607 5616
5771 5763 5755 5748 5740 5731 5723 5714 5704 5695 5686 5676 5667 5657 5648 5639 5630 5622 5613 5604 5595 5586 5577 5569 5560 5553 5547 5542 5538 5535 5534 5534 5535 5538 5542 5547 5553 5560 5569 5577 5587 5596 5604
5764 5757 5749 5741 5733 5725 5716 5707 5698 5688 5679 5669 5660 5650 5641 5632 5623 5614 5605 5596 5588 5579 5570 5562 5553 5546 5540 5535 5531 5528 5527 5527 5528 5531 5534 5539 5545 5552 5560 5569 5578 5587 5595
5758 5751 5743 5735 5727 5719 5710 5701 5692 5682 5673 5663 5653 5644 5635 5626 5617 5608 5599 5590 5582 5573 5565 5556 5549 5541 5535 5530 5525 5522 5521 5521 5522 5524 5528 5532 5538 5545 5553 5562 5570 5579 5587
5752 5745 5737 5729 5721 5713 5704 5695 5686 5676 5667 5657 5648 5639 5630 5621 5611 5602 5594 5585 5577 5569 5560 5552 5545 5538 5531 5526 5521 5518 5516 5516 5517 5520 5523 5528 5534 5540 5548 5556 5564 5573 5581
5745 5738 5731 5723 5715 5707 5698 5689 5680 5671 5661 5652 5643 5634 5625 5616 5607 5598 5589 5581 5573 5565 5557 5550 5543 5536 5530 5524 5519 5516 5514 5514 5515 5518 5521 5526 5532 5538 5545 5552 5560 5568 5576
5739 5732 5724 5717 5709 5701 5692 5683 5675 5666 5657 5647 5638 5629 5621 5612 5603 5594 5586 5577 5570 5562 5555 5548 5541 5535 5529 5524 5520 5516 5515 5515 5516 5518 5521 5526 5531 5536 5543 5549 5557 5564 5572